Simultaneous Nadir Overpasses (SNOs) Predictions

Prediction of SNOs between AQUA and NPP Satellite Orbit:

Table of predicted SNOs for the next 14.0 days since TLE Epoch: 9/11/2021
Index Date (AQUA) Time (AQUA) Lat,Lon (AQUA) SZA (AQUA ) Date (NPP) Time (NPP) Lat,Lon (NPP) SZA (NPP ) Distance(km) Time Diff (sec)
1 09/11/2021 06:21:31 -76.21, 144.31 87.58 09/11/2021 06:22:15 -76.21, 144.29 87.62 0.43 44
2 09/13/2021 21:48:48 75.44, 90.24 94.23 09/13/2021 21:48:42 75.44, 90.20 94.25 1.12 6
3 09/13/2021 22:37:56 -76.42, -99.15 86.86 09/13/2021 22:39:07 -76.41, -99.24 86.90 2.60 71
4 09/16/2021 13:16:04 -74.84, 36.86 84.17 09/16/2021 13:15:07 -74.84, 36.91 84.13 1.54 57
5 09/16/2021 14:05:11 75.74,-153.02 94.86 09/16/2021 14:05:32 75.73,-153.11 94.86 2.65 21
6 09/19/2021 05:32:26 -75.18, 153.64 83.59 09/19/2021 05:31:56 -75.19, 153.66 83.57 0.64 30
7 09/19/2021 06:21:25 76.41, -35.04 95.06 09/19/2021 06:22:12 76.42, -34.95 94.99 2.62 47
8 09/21/2021 21:04:12 59.26, 81.79 112.97 09/21/2021 21:02:59 59.47, 80.60 113.33 71.74 73
9 09/21/2021 21:48:45 -75.61, -89.27 83.10 09/21/2021 21:48:42 -75.62, -89.25 83.10 0.62 3
10 09/21/2021 22:37:17 78.10, 87.51 94.01 09/21/2021 22:38:31 78.01, 87.77 93.93 11.49 74
11 09/24/2021 13:16:08 74.47,-144.05 99.10 09/24/2021 13:15:16 74.46,-144.13 99.17 2.71 52



Historial Predications of SNOs between AQUA and NPP
